Back to catalog

THORAD AGENA D DEB

AliveLEO
NORAD 5151·DEBRIS·🇺🇸 United States

Launched Apr 8, 1970 from Vandenberg Space Force Base

Loading…

Next Passes (next 24 hours)

TLE

FreshSource: Space-Track

Epoch: Sep 13, 2026, 21:59 UTC

1  5151U 70025JU  26256.91641470  .00000349  00000-0  48715-3 0  9993
2  5151 100.0612 130.9510 0002854 349.2800  24.3151 13.65462150295890

Track THORAD AGENA D DEB in real time with AllMySat

Download on the App Store